Wind_Speed
8 6 5 5 5 5 5 5 4 4 4 3 4 3 2 3 3 2 2 2 3 4 5 6 6 7 7 8 8 9 9 10 10 9 9 9 8 8 7 7 7 8 7 7 6 6 6 6 6
9 8 7 6 6 6 6 6 6 4 4 4 4 3 3 3 3 2 2 2 3 4 5 6 6 7 7 8 9 9 10 10 10 9 9 9 8 8 8 8 8 8 7 7 7 6 6 6 6
11 10 8 8 8 7 7 7 7 6 5 5 4 4 4 3 3 2 2 2 3 4 5 6 6 7 8 8 9 9 10 10 10 10 9 9 9 9 9 8 8 8 8 8 7 7 7 6 6
12 11 10 9 9 7 7 7 6 7 7 6 5 4 4 3 3 3 2 2 3 4 5 5 6 7 8 9 9 9 10 10 10 10 10 10 10 10 10 10 9 9 9 9 8 8 7 7 7
13 12 11 11 10 9 8 7 8 8 8 7 5 5 4 3 3 3 2 3 3 4 5 5 6 7 8 9 9 10 10 10 10 10 10 10 10 11 10 10 10 10 9 9 8 8 7 7 7
14 13 13 12 11 10 9 8 8 8 8 7 6 5 4 3 2 2 2 2 3 3 4 5 6 7 8 8 9 9 10 10 10 11 11 11 11 11 11 11 11 10 10 9 8 8 7 7 7
15 14 14 13 12 11 10 9 9 8 8 7 6 5 4 3 2 2 1 1 2 3 4 5 6 6 7 8 9 10 10 11 11 11 11 11 12 12 12 12 11 11 10 9 8 7 7 7 7
16 15 14 13 12 12 10 9 10 8 8 7 6 5 4 4 3 2 1 1 2 3 3 4 5 6 7 8 9 10 11 11 11 11 11 12 12 12 12 12 12 12 10 9 8 7 6 6 6
18 17 16 14 13 12 11 9 9 9 9 8 7 6 5 4 3 2 0 1 1 2 3 4 4 6 7 8 9 10 11 11 11 11 12 12 12 12 13 13 13 12 11 10 8 7 6 5 5
19 18 16 15 14 12 11 9 9 9 9 9 8 7 6 5 4 2 1 0 1 2 3 4 5 6 7 8 9 10 10 10 11 12 12 12 13 13 14 13 13 13 12 10 9 7 6 5 4
19 18 17 16 14 12 11 10 10 9 9 9 9 7 6 5 4 3 2 1 1 1 2 3 4 6 7 8 9 10 10 11 11 12 13 13 14 14 14 14 14 13 12 11 9 7 5 4 3
18 18 16 14 13 12 11 10 9 9 9 9 10 8 7 6 5 3 2 1 1 1 2 3 4 6 7 8 9 10 10 11 12 12 13 13 14 14 14 14 14 14 13 11 10 8 6 4 2
19 18 17 15 13 12 12 11 10 9 9 9 9 8 7 6 5 3 2 1 1 1 2 3 4 5 6 7 8 9 10 11 11 12 13 13 14 13 14 15 15 15 14 13 11 9 7 5 3
18 18 17 16 14 13 12 11 11 11 10 10 9 8 8 6 5 3 2 1 1 1 2 2 3 4 5 7 8 9 10 11 11 12 13 13 14 14 14 15 15 15 15 15 13 10 9 6 4
18 18 17 17 16 15 13 12 12 11 10 10 9 8 8 6 5 4 3 2 2 1 2 2 2 3 5 6 8 9 10 10 11 12 13 13 14 14 14 15 15 16 16 16 15 13 11 8 6
18 19 18 17 17 16 14 13 12 11 10 10 9 9 8 7 6 5 4 3 2 2 1 2 2 2 4 6 7 8 9 10 11 12 13 14 14 14 15 15 16 16 17 16 15 14 13 10 8
19 19 18 17 17 17 15 14 13 12 10 10 10 9 8 8 7 6 5 4 3 2 1 1 1 2 4 5 6 7 8 9 10 11 12 13 14 14 15 15 16 16 17 17 16 14 13 12 10
19 18 17 17 16 17 16 15 14 13 12 11 10 9 8 7 7 6 5 5 4 3 1 1 1 2 3 5 6 7 7 8 9 11 12 13 14 14 14 15 16 16 17 17 16 15 14 13 11
18 17 17 18 17 16 16 15 13 12 12 11 10 10 8 7 7 7 6 5 4 3 2 1 1 1 3 4 5 6 7 8 9 10 12 13 13 14 15 15 16 16 17 17 17 16 15 13 12
19 18 18 18 17 17 15 15 14 12 12 11 10 9 8 8 8 7 6 6 5 4 3 2 1 1 2 3 4 5 6 7 8 10 11 12 12 14 14 15 16 16 17 17 17 16 15 14 13
19 19 18 19 18 16 15 14 14 13 12 11 10 9 9 8 8 7 6 6 6 5 4 3 2 1 1 2 4 4 5 7 8 9 10 11 11 13 14 15 15 16 16 16 16 16 15 14 13
19 20 18 18 18 17 16 14 15 13 12 13 11 10 10 9 8 8 7 7 7 6 5 3 2 2 1 2 3 4 5 6 7 8 9 10 11 12 13 14 14 15 16 16 16 16 15 14 12
19 18 18 17 17 17 16 15 15 14 13 13 12 11 10 9 9 9 8 8 7 7 6 5 3 3 2 2 2 2 3 5 6 7 8 9 10 11 12 13 14 14 15 16 16 16 15 14 13
17 17 18 17 16 16 16 17 17 15 14 13 12 11 11 10 10 10 9 8 8 8 7 6 5 4 3 2 1 1 2 4 5 6 7 8 9 11 12 13 13 14 14 15 15 16 15 14 14
16 16 17 17 17 17 16 17 17 16 15 13 12 12 12 11 11 10 9 8 8 8 7 6 6 5 4 2 1 0 1 3 4 5 6 7 9 10 11 12 12 13 13 14 14 15 14 14 13
16 16 15 15 16 15 16 17 18 16 15 15 13 12 12 12 11 10 10 9 9 9 8 8 7 6 5 4 3 2 1 2 3 4 5 6 7 9 10 11 11 12 13 13 13 13 13 13 12
16 16 13 13 13 12 14 14 15 16 16 15 14 13 13 13 12 11 11 10 10 10 9 8 8 7 6 5 4 3 2 2 3 4 4 5 6 8 9 10 11 11 12 12 12 12 12 12 12
15 15 15 14 13 13 12 12 12 14 14 14 14 14 14 14 13 12 12 11 11 11 10 10 9 8 7 6 5 4 3 3 3 3 4 5 6 7 8 10 11 11 11 12 12 12 12 11 11
15 15 15 15 14 12 12 13 13 14 14 14 14 14 13 14 14 13 13 13 12 12 11 11 10 9 8 7 6 5 5 4 4 4 4 5 6 7 8 9 10 11 11 12 11 11 11 11 11
15 15 15 16 16 15 13 12 12 12 13 13 14 14 13 13 14 14 14 14 14 13 12 11 11 10 9 9 8 7 6 5 5 5 5 6 6 7 8 9 10 11 12 12 11 11 12 12 12
Wind_Direction
228 229 229 230 232 234 229 232 226 218 223 234 242 240 241 256 262 281 304 326 341 349 358 8 12 13 13 10 9 10 9 6 5 2 359 358 354 348 343 338 333 327 325 322 311 301 289 277 262
227 231 233 232 229 231 232 236 238 233 232 240 248 248 249 251 252 276 292 326 349 354 5 10 10 11 10 8 11 10 7 5 4 2 358 356 352 349 347 340 334 329 325 320 311 307 297 282 268
229 232 235 232 233 232 235 238 238 238 237 241 250 253 245 246 254 267 292 333 358 4 8 11 11 9 8 11 11 9 5 2 2 0 357 355 352 349 346 341 337 332 326 320 311 302 294 283 272
229 233 235 233 236 237 238 237 240 239 242 246 247 246 239 241 253 268 288 326 353 3 6 10 11 11 12 12 8 6 2 360 359 357 356 355 353 350 347 344 339 333 327 320 311 299 289 278 270
229 231 233 232 237 242 241 241 242 241 243 244 241 235 231 238 255 263 294 319 337 354 6 15 13 13 13 11 8 6 2 0 358 357 355 355 354 350 348 348 344 337 330 322 312 301 288 275 266
230 231 234 231 234 237 237 242 240 246 243 243 236 226 226 238 250 261 299 318 349 6 13 18 13 14 13 11 8 6 5 3 1 359 357 357 358 356 353 351 346 340 336 328 317 305 292 277 264
229 231 233 230 230 233 234 236 238 244 241 234 223 218 223 224 233 253 305 321 23 14 15 16 12 12 12 10 9 10 9 7 5 2 0 4 4 1 357 354 349 342 337 330 319 308 293 278 266
229 230 229 228 230 231 232 237 237 236 227 220 219 218 221 219 219 246 317 26 29 15 15 16 17 19 15 13 16 16 14 12 9 7 7 6 4 1 358 356 353 348 342 335 325 313 298 282 272
228 228 229 232 233 234 233 234 235 231 224 221 220 218 218 214 222 247 265 51 28 19 18 20 23 22 21 22 22 19 16 14 12 11 9 8 6 4 1 359 358 356 352 346 337 324 309 293 279
227 228 229 231 235 232 230 230 234 232 227 222 220 219 223 222 228 238 215 179 2 26 29 31 28 27 25 24 23 19 19 17 15 14 13 12 10 8 7 5 3 2 359 355 350 339 325 305 286
225 228 226 227 230 225 228 234 231 227 223 217 218 219 221 224 229 229 214 232 340 19 36 33 29 30 28 25 22 20 20 19 17 18 17 15 14 12 12 10 9 7 5 3 -0 355 344 324 299
225 229 231 226 225 221 225 230 226 222 215 216 216 219 222 224 228 225 221 212 23 33 38 41 34 30 27 25 23 21 21 20 20 21 21 20 19 18 18 16 15 13 12 10 8 4 358 347 333
228 230 230 226 225 224 225 223 221 222 214 218 219 218 218 217 215 212 217 173 72 55 47 46 35 31 29 24 23 23 23 23 24 23 23 22 22 22 22 19 18 18 16 15 13 11 10 9 7
225 227 228 225 224 224 223 220 221 224 219 218 219 217 215 216 210 206 189 170 148 93 57 47 37 34 30 25 25 26 26 26 26 24 24 25 24 23 22 21 22 22 21 22 22 20 22 26 32
221 223 225 225 222 224 225 222 221 220 222 218 217 217 218 219 215 215 196 185 167 120 65 51 43 38 31 27 28 28 27 28 27 27 28 27 25 24 23 24 25 25 25 25 27 30 33 38 43
217 219 222 223 222 223 225 223 220 221 219 215 216 217 218 221 219 215 203 185 170 135 78 62 57 43 36 34 32 29 29 31 31 30 29 28 27 27 27 27 28 30 30 30 32 35 38 41 48
217 218 221 221 219 221 225 221 222 221 219 213 213 215 214 214 214 211 196 181 175 160 115 81 74 51 42 39 36 29 31 34 32 31 32 31 30 31 31 30 31 33 33 33 34 37 41 45 52
215 216 219 222 218 220 221 218 223 221 223 218 216 213 210 207 207 202 195 190 189 181 160 122 107 69 50 43 38 32 35 37 35 35 35 34 33 34 33 33 34 35 34 34 36 40 44 47 53
214 216 217 218 215 218 219 217 219 214 216 216 215 208 204 208 204 201 195 197 202 194 179 168 150 95 61 50 45 41 42 40 39 38 36 35 33 34 34 35 35 35 35 36 39 42 45 48 51
212 218 219 218 217 216 221 220 217 214 214 212 212 208 205 204 204 205 203 204 206 198 192 185 160 116 74 63 55 49 47 43 42 39 37 37 36 34 34 35 36 36 37 38 39 40 43 46 49
210 216 220 216 213 216 218 218 216 214 217 215 212 213 209 207 209 209 208 207 204 202 200 189 169 147 88 77 63 56 49 44 41 37 36 35 35 34 34 36 36 36 37 37 38 39 41 43 45
211 215 216 213 214 217 215 222 219 216 218 216 216 218 218 216 215 216 215 210 208 207 204 196 182 171 135 100 73 62 49 39 35 34 34 35 34 33 33 33 33 33 33 35 36 37 37 40 42
212 217 216 215 218 216 214 227 226 224 226 221 219 222 223 220 218 220 220 215 214 212 208 206 198 193 173 136 86 62 42 32 32 32 32 32 31 30 28 29 30 30 31 33 33 34 35 38 40
214 219 219 219 220 220 219 226 229 227 230 227 222 225 224 221 218 220 220 217 218 215 212 210 204 202 193 180 134 50 33 27 30 31 31 29 28 26 26 26 26 27 28 30 31 31 34 36 39
213 214 218 220 221 225 223 225 228 225 230 230 226 227 226 225 221 218 217 218 219 217 214 213 206 206 211 215 232 291 17 27 29 27 25 24 22 22 22 23 24 25 25 26 28 29 32 35 37
210 212 218 219 221 226 227 229 229 228 231 233 231 230 229 228 223 219 219 218 217 216 214 214 214 217 221 225 238 254 311 2 12 12 13 14 15 17 19 19 20 21 22 24 26 25 27 30 33
213 210 209 214 216 222 228 233 230 234 233 232 231 233 231 231 227 224 223 219 219 218 216 217 220 224 226 228 237 252 271 306 342 354 0 4 7 10 13 16 16 16 17 18 19 19 21 23 26
215 212 209 208 212 219 224 233 238 245 238 231 233 234 232 228 227 226 225 222 221 222 221 221 222 224 226 230 236 249 262 286 316 337 344 350 353 359 5 8 8 7 7 8 10 12 15 18 20
215 215 214 212 214 218 219 226 237 244 240 233 234 231 229 230 229 228 227 224 223 224 224 224 224 227 230 234 241 250 260 274 294 311 325 336 341 346 352 356 358 360 359 359 1 4 7 8 8
217 215 215 216 215 220 229 231 234 239 238 234 232 232 232 232 231 229 228 228 228 226 228 228 228 231 234 239 245 251 258 268 282 295 307 318 324 331 338 342 344 348 351 352 353 354 357 357 354
Height
5883 5883 5885 5886 5887 5887 5887 5887 5887 5888 5889 5889 5889 5890 5891 5891 5893 5895 5893 5892 5892 5892 5892 5891 5891 5890 5889 5888 5887 5886 5885 5884 5882 5881 5880 5878 5877 5876 5875 5874 5873 5872 5871 5870 5869 5869 5868 5868 5868
5882 5883 5885 5886 5886 5886 5887 5887 5887 5888 5889 5889 5889 5890 5891 5891 5892 5892 5892 5892 5892 5892 5892 5891 5891 5890 5889 5888 5887 5886 5885 5883 5882 5881 5879 5878 5876 5875 5874 5872 5871 5870 5869 5869 5868 5867 5867 5867 5867
5881 5882 5884 5885 5885 5886 5886 5886 5887 5888 5888 5889 5890 5891 5891 5892 5892 5892 5892 5893 5893 5892 5892 5891 5891 5890 5889 5888 5887 5886 5884 5883 5881 5880 5879 5877 5876 5874 5873 5871 5870 5869 5868 5867 5866 5866 5866 5865 5865
5880 5882 5883 5884 5884 5884 5885 5886 5886 5887 5888 5889 5890 5891 5891 5892 5892 5892 5893 5893 5893 5892 5892 5891 5891 5890 5889 5888 5887 5885 5884 5883 5881 5880 5878 5876 5875 5873 5872 5870 5869 5868 5867 5866 5865 5864 5864 5863 5863
5878 5880 5881 5882 5883 5884 5884 5885 5886 5887 5887 5888 5890 5890 5891 5892 5892 5892 5893 5893 5893 5892 5892 5891 5891 5890 5889 5888 5887 5885 5884 5882 5881 5879 5877 5876 5874 5872 5871 5869 5868 5866 5865 5864 5863 5862 5861 5861 5861
5877 5878 5880 5880 5881 5882 5883 5884 5885 5886 5887 5888 5889 5890 5891 5892 5892 5892 5893 5893 5892 5892 5892 5892 5891 5890 5889 5888 5887 5885 5884 5882 5880 5879 5877 5875 5873 5872 5870 5868 5866 5865 5863 5862 5861 5860 5859 5859 5859
5875 5877 5877 5878 5880 5881 5883 5883 5884 5885 5886 5887 5889 5890 5890 5891 5892 5892 5892 5893 5892 5892 5892 5892 5891 5890 5889 5888 5887 5885 5883 5882 5880 5878 5877 5875 5873 5871 5869 5867 5865 5863 5861 5860 5858 5857 5857 5857 5857
5872 5875 5875 5875 5877 5879 5881 5882 5883 5884 5885 5887 5889 5890 5890 5891 5892 5892 5892 5893 5892 5892 5892 5892 5891 5890 5889 5888 5886 5885 5883 5882 5880 5878 5876 5874 5872 5870 5868 5866 5864 5862 5860 5858 5856 5855 5855 5855 5855
5870 5873 5873 5874 5876 5877 5879 5881 5882 5883 5884 5886 5888 5889 5890 5891 5892 5892 5892 5893 5892 5892 5892 5892 5891 5890 5889 5888 5887 5885 5883 5882 5880 5878 5876 5874 5872 5870 5868 5865 5863 5860 5858 5856 5855 5853 5853 5853 5853
5868 5870 5871 5873 5874 5876 5877 5879 5881 5882 5883 5885 5887 5888 5890 5891 5891 5892 5892 5892 5892 5892 5892 5892 5891 5890 5889 5888 5887 5885 5884 5882 5880 5878 5876 5874 5872 5870 5867 5865 5862 5860 5857 5855 5853 5852 5851 5851 5851
5865 5867 5868 5871 5873 5874 5876 5878 5880 5881 5883 5884 5886 5888 5889 5890 5891 5891 5892 5892 5892 5892 5892 5892 5891 5890 5889 5888 5887 5886 5884 5882 5881 5879 5877 5874 5872 5870 5867 5865 5862 5859 5857 5855 5853 5851 5850 5850 5850
5862 5864 5866 5869 5871 5873 5874 5877 5878 5880 5882 5884 5885 5887 5888 5890 5890 5891 5891 5891 5892 5892 5892 5892 5891 5891 5890 5889 5887 5886 5885 5883 5881 5879 5877 5875 5872 5870 5868 5865 5862 5860 5857 5855 5852 5851 5849 5849 5849
5860 5863 5865 5868 5869 5872 5874 5875 5877 5879 5881 5883 5884 5886 5888 5889 5890 5890 5891 5891 5892 5892 5892 5892 5892 5891 5890 5889 5888 5886 5885 5883 5882 5880 5877 5875 5873 5871 5868 5866 5863 5860 5857 5855 5852 5850 5849 5848 5848
5859 5861 5864 5866 5868 5870 5872 5874 5876 5878 5880 5882 5884 5886 5887 5888 5889 5890 5890 5891 5891 5892 5892 5892 5891 5891 5890 5890 5888 5887 5885 5884 5882 5880 5878 5876 5874 5871 5869 5866 5864 5861 5858 5855 5853 5850 5849 5848 5848
5856 5860 5863 5864 5867 5869 5871 5873 5875 5877 5879 5881 5883 5885 5886 5887 5888 5889 5890 5891 5891 5892 5892 5892 5892 5891 5891 5890 5889 5887 5886 5884 5883 5881 5879 5877 5874 5872 5870 5867 5865 5862 5859 5856 5853 5851 5850 5849 5848
5854 5858 5861 5863 5865 5868 5871 5872 5874 5876 5878 5880 5882 5884 5885 5886 5888 5889 5890 5890 5891 5892 5892 5892 5892 5891 5891 5890 5889 5888 5887 5885 5884 5882 5880 5878 5875 5873 5870 5868 5866 5863 5860 5858 5855 5853 5851 5850 5849
5853 5856 5858 5861 5863 5866 5869 5871 5873 5875 5877 5879 5881 5882 5884 5886 5887 5888 5889 5890 5891 5892 5892 5892 5892 5892 5891 5891 5890 5889 5887 5886 5885 5883 5881 5879 5877 5874 5872 5870 5867 5865 5862 5859 5857 5855 5853 5852 5851
5851 5854 5857 5859 5862 5865 5867 5869 5872 5874 5876 5878 5880 5882 5883 5885 5887 5888 5889 5890 5891 5891 5892 5892 5892 5892 5892 5891 5890 5889 5888 5887 5886 5884 5882 5880 5878 5876 5874 5871 5869 5867 5864 5862 5859 5857 5855 5854 5853
5849 5852 5855 5858 5860 5863 5865 5868 5870 5872 5875 5877 5879 5881 5883 5884 5886 5887 5888 5889 5890 5891 5891 5892 5892 5892 5892 5891 5891 5890 5889 5888 5887 5885 5884 5882 5880 5878 5876 5874 5871 5869 5866 5864 5861 5859 5857 5856 5855
5848 5851 5853 5856 5859 5861 5863 5866 5869 5871 5874 5876 5878 5880 5881 5883 5885 5886 5888 5889 5890 5890 5891 5892 5892 5892 5892 5892 5891 5891 5890 5889 5888 5887 5885 5884 5882 5880 5878 5876 5873 5871 5869 5866 5864 5862 5860 5858 5857
5846 5849 5851 5854 5857 5860 5862 5864 5867 5870 5872 5875 5877 5879 5881 5882 5884 5885 5887 5888 5889 5890 5891 5892 5892 5892 5892 5892 5892 5891 5891 5890 5889 5888 5887 5885 5884 5882 5880 5877 5875 5873 5871 5869 5866 5864 5862 5861 5859
5844 5847 5850 5852 5855 5858 5861 5863 5865 5868 5871 5873 5876 5878 5880 5881 5883 5884 5886 5887 5888 5889 5890 5891 5892 5892 5892 5892 5892 5892 5892 5891 5890 5889 5888 5887 5885 5883 5882 5880 5877 5875 5873 5871 5868 5866 5864 5862 5861
5842 5845 5848 5850 5853 5856 5859 5862 5865 5866 5869 5872 5874 5877 5878 5880 5882 5883 5885 5886 5887 5889 5890 5891 5891 5892 5892 5892 5892 5892 5892 5892 5891 5890 5889 5888 5886 5885 5883 5881 5879 5877 5875 5873 5870 5868 5866 5864 5862
5841 5844 5847 5849 5852 5855 5858 5861 5863 5865 5868 5871 5873 5875 5877 5879 5881 5882 5884 5885 5887 5888 5889 5890 5891 5892 5892 5892 5892 5892 5892 5892 5891 5891 5890 5889 5888 5886 5885 5883 5881 5879 5877 5875 5872 5870 5867 5866 5864
5840 5844 5846 5848 5850 5854 5856 5858 5861 5864 5866 5869 5871 5873 5875 5877 5879 5881 5883 5884 5885 5887 5888 5889 5890 5891 5892 5892 5892 5893 5892 5892 5892 5891 5890 5890 5888 5887 5886 5884 5882 5880 5878 5876 5874 5872 5869 5868 5866
5838 5842 5846 5848 5850 5852 5854 5856 5860 5862 5865 5867 5869 5871 5874 5875 5877 5879 5881 5883 5884 5886 5887 5888 5889 5890 5891 5892 5892 5892 5893 5892 5892 5891 5891 5890 5889 5888 5886 5885 5883 5881 5880 5877 5875 5873 5871 5869 5868
5837 5840 5843 5846 5848 5850 5852 5855 5858 5860 5863 5865 5868 5870 5871 5873 5875 5877 5879 5881 5883 5884 5886 5887 5889 5889 5890 5891 5892 5892 5892 5892 5892 5891 5891 5890 5889 5888 5887 5885 5884 5882 5881 5879 5877 5875 5873 5871 5870
5836 5838 5841 5844 5847 5849 5852 5854 5856 5858 5860 5863 5865 5867 5869 5871 5873 5875 5877 5879 5881 5883 5884 5886 5887 5888 5889 5890 5891 5891 5892 5892 5891 5891 5891 5890 5889 5888 5887 5886 5884 5883 5881 5879 5878 5876 5874 5872 5871
5835 5838 5840 5842 5845 5848 5850 5854 5854 5856 5858 5861 5863 5865 5867 5869 5871 5873 5876 5877 5879 5881 5883 5884 5885 5887 5888 5889 5890 5890 5891 5891 5891 5891 5890 5890 5889 5888 5887 5886 5885 5883 5881 5880 5878 5876 5874 5873 5872
5833 5835 5838 5841 5844 5846 5848 5853 5852 5854 5856 5858 5860 5863 5865 5867 5869 5871 5873 5875 5877 5879 5881 5882 5884 5885 5886 5887 5888 5889 5889 5890 5890 5890 5889 5889 5888 5887 5886 5885 5884 5883 5881 5879 5878 5876 5875 5873 5872